Miscellaneous Local Product
Issued by NWS North Platte, NE

Home | Current Version | Previous Version | Text Only | Print | Product List | Glossary On
Versions: 1 2 3 4 5 6 7 8 9 10 11 12 13 14 15 16 17 18 19 20 21 22 23 24 25 26 27 28 29 30 31 32 33 34 35 36 37 38 39 40 41 42 43 44 45 46 47 48 49 50
572
AXUS43 KLBF 172110
MISLBF


WESTERN AND NORTH CENTRAL NEBRASKA HOURLY WEATHER ROUNDUP
NATIONAL WEATHER SERVICE NORTH PLATTE NE
300 PM CST SAT FEB 17 2018

NOTE: "FAIR" INDICATES FEW OR NO CLOUDS BELOW 12,000 FEET WITH NO
SIGNIFICANT WEATHER AND/OR OBSTRUCTIONS TO VISIBILITY.

NOTE: STATIONS NOT REPORTING VARIABLES SUCH AS SKY/WEATHER OR
PRESSURE ARE PROVIDED BY RAWS AND APRS NETWORKS AND ARE NOT UNDER
NATIONAL WEATHER SERVICE QUALITY CONTROL.

...OBSERVATIONS IN AND NEAR THE EASTERN PANHANDLE OF NEBRASKA...

CITY           SKY/WX    TMP DP  RH WIND       PRES   REMARKS
PINE RIDGE     SUNNY     38  22  52 VRB3      29.95F
GORDON         FAIR      37  21  53 SW7       29.95F WCI  31
CHADRON        SUNNY     37  23  56 NE6       29.93F WCI  32
ALLIANCE       PTSUNNY   49  16  26 W16G22    29.92F
SIDNEY         SUNNY     50  11  20 NW18G28   29.96F
$$

...OBSERVATIONS IN NORTHERN NEBRASKA AND FAR SOUTHERN SOUTH DAKOTA...

CITY           SKY/WX    TMP DP  RH WIND       PRES   REMARKS
WINNER         FAIR      35  24  64 NW13      30.03F WCI  26
VALENTINE      MOSUNNY   40  23  50 NW8       30.01F WCI  34
AINSWORTH      PTSUNNY   37  24  60 NW12      30.03S WCI  29
O`NEILL        MOSUNNY   39  27  60 NW16      30.05R WCI  31
THEDFORD       SUNNY     43  20  40 W8        30.04S
BROKEN BOW     SUNNY     42  23  46 NW16      30.05R
ORD            SUNNY     44  24  45 NW16      30.04S
ALBION         SUNNY     43  28  54 NW17      30.05R
$$

...OBSERVATIONS IN SOUTHWEST NEBRASKA AND FAR NORTHEAST COLORADO...

CITY           SKY/WX    TMP DP  RH WIND       PRES   REMARKS
WRAY           FAIR      54   9  16 NW12      30.03F
HOLYOKE        FAIR      54  14  20 NW12G24   30.02F
IMPERIAL       SUNNY     50  18  28 NW7       30.04F
OGALLALA       SUNNY     49  16  26 NW13G21   30.00F
NORTH PLATTE   SUNNY     48  21  34 NW8       30.04F
MCCOOK         SUNNY     48  23  37 NW10      30.07F
LEXINGTON      FAIR      46  26  46 NW8       30.06S
GOTHENBURG       N/A     45  20  37 NW8         N/A
CALLAWAY         N/A     43  24  46 N13         N/A
$$

...OBSERVATIONS IN CENTRAL LINCOLN COUNTY AREA...

CITY           SKY/WX    TMP DP  RH WIND       PRES   REMARKS
N.P. AIRPORT   SUNNY     48  21  34 NW8       30.04F
$$

...OBSERVATIONS ACROSS THE ROCKIES AND WESTERN HIGH PLAINS...

CITY           SKY/WX    TMP DP  RH WIND       PRES   REMARKS
RAPID CITY     PTSUNNY   29  20  69 NE10      29.95F WCI  20
SCOTTSBLUFF    SUNNY     50  15  24 W24G30    29.92F
CHEYENNE       SUNNY     47   4  17 W25G40    29.93F
DENVER         MOSUNNY   54   7  15 S15G21    29.97F
BERTHOUD PASS  FAIR      18   5  57 NW33G59   30.02R WCI  -3
COPPER MTN     SUNNY     27   3  36 W20G30    30.10F WCI  13
MONARCH PASS   SUNNY     21   7  53 W36G43    30.24S WCI   2
ASPEN          SUNNY     40  12  32 CALM      30.12F
LARAMIE        MOSUNNY   40   9  28 SW22G32   29.93F WCI  30
CASPER         SUNNY     43  14  31 SW37G46   29.84F
$$

...OBSERVATIONS ACROSS THE NORTHERN PLAINS...

CITY           SKY/WX    TMP DP  RH WIND       PRES   REMARKS
BISMARCK       MOSUNNY   25  13  60 W18       29.99F WCI  11
FARGO          FAIR      24   9  52 NW22G29   29.98R WCI   9
PIERRE         MOSUNNY   28  21  75 NW15      30.04F WCI  16
SIOUX FALLS    PTSUNNY   33  25  72 NW17G24   30.02R WCI  22
$$

...OBSERVATIONS ACROSS THE CENTRAL AND SOUTHERN PLAINS...

CITY           SKY/WX    TMP DP  RH WIND       PRES   REMARKS
OMAHA          MOSUNNY   47  24  40 NW20      30.05R
GRAND ISLAND   SUNNY     48  24  39 NW16      30.06S
KANSAS CITY    MOSUNNY   53  20  27 NW14      30.10R
WICHITA        SUNNY     60  13  15 N20G29    30.09F
DODGE CITY     SUNNY     57  12  17 N12G29    30.11F
OKLAHOMA CITY  CLOUDY    57  30  35 N8        30.13R
DALLAS         PTSUNNY   65  48  54 NE12      30.10R
AMARILLO       CLOUDY    57  11  16 E10       30.16F
$$




USA.gov is the U.S. government's official web portal to all federal, state and local government web resources and services.